Theta_e
334 335 334 334 333 332 330 328 327 325 324 323 323 322 319 317 318 319 319 319 326 330 331 333 335 336 336 336 336 336 337 337 336 336 335 336 334 333 332 332 330 329 328
335 334 333 333 333 332 330 328 326 324 323 323 321 321 318 317 317 318 318 318 323 327 330 331 334 334 335 336 336 336 337 337 337 336 336 335 335 334 333 333 332 330 329
332 334 333 332 332 332 329 327 326 325 322 321 320 318 318 316 316 316 316 318 319 321 326 331 331 332 334 335 336 336 336 336 337 336 335 335 335 335 334 333 333 332 331
324 327 329 332 332 330 330 327 326 323 322 320 318 316 314 314 314 315 316 316 318 319 321 327 330 331 332 333 334 335 335 335 336 336 335 335 334 335 334 334 333 332 332
326 328 327 328 333 330 329 327 325 322 319 317 316 313 311 311 311 315 314 315 316 317 318 320 322 324 330 331 333 333 333 333 335 335 335 335 334 334 334 334 334 333 333
324 328 329 329 329 329 328 326 324 323 320 318 317 314 311 310 310 310 310 313 314 316 317 318 318 318 321 329 331 332 332 331 333 334 334 333 332 335 334 335 335 334 333
322 324 324 324 327 327 327 327 325 322 319 320 316 315 312 311 310 310 310 310 311 314 315 317 317 318 318 323 328 329 331 331 330 332 333 333 333 332 331 331 332 334 335
317 318 322 325 323 322 325 325 325 322 321 320 316 313 308 309 310 310 310 312 311 313 314 316 317 318 319 318 319 327 329 330 330 330 332 332 333 332 331 330 329 329 332
315 316 323 324 326 325 323 323 323 323 319 321 319 312 307 307 308 311 311 311 312 313 314 315 316 318 318 318 319 321 323 324 328 330 331 332 331 330 329 328 327 327 328
315 315 319 323 325 325 325 324 326 324 322 317 316 316 313 312 308 305 310 311 311 310 311 311 315 316 316 316 314 313 314 318 321 326 328 330 329 329 328 327 326 326 326
314 314 317 320 318 322 325 325 324 324 321 319 316 314 314 314 312 307 305 307 309 309 308 310 311 312 314 315 316 314 313 316 317 318 321 324 326 326 325 325 325 325 325
311 312 316 319 319 317 321 322 324 322 320 319 318 317 315 314 312 309 307 308 307 310 310 310 312 312 313 314 313 310 311 313 316 315 316 317 319 320 321 322 323 323 324
307 309 312 315 318 321 321 322 321 321 321 319 317 316 317 317 317 316 312 310 308 310 311 313 309 308 307 305 305 300 303 310 314 314 313 313 315 316 317 319 321 322 321
306 309 311 313 312 314 321 322 321 321 320 318 318 317 317 317 318 315 314 312 308 309 309 309 297 297 298 299 300 299 306 305 310 312 312 312 313 314 316 319 317 317 317
306 305 308 307 308 308 319 321 320 319 319 319 319 319 318 318 317 317 316 315 312 307 307 298 296 293 294 296 296 302 303 301 306 309 310 311 312 314 313 313 312 312 312
302 300 300 300 303 303 307 320 319 319 318 318 318 318 318 317 316 316 316 316 315 312 306 294 289 290 291 293 293 297 297 297 300 303 304 305 306 307 307 308 308 308 308
298 299 298 298 299 300 300 304 305 307 311 303 303 309 301 302 301 302 304 307 311 312 308 287 289 289 287 289 290 292 294 295 297 299 301 302 302 303 304 304 305 305 305
295 296 295 295 296 297 297 298 296 297 298 297 296 297 297 296 295 296 296 295 297 297 297 287 285 285 285 285 287 287 288 290 293 297 298 298 299 299 299 299 299 299 300
293 293 293 292 292 293 293 293 292 291 291 291 292 293 294 294 292 293 293 292 292 292 292 288 284 285 285 285 285 285 285 285 287 292 294 294 295 296 296 296 295 295 295
290 290 290 290 290 290 290 290 289 288 287 287 288 288 289 291 291 291 290 291 290 288 288 286 285 284 284 284 285 284 283 284 284 286 288 289 290 292 292 292 291 291 292
287 287 287 287 287 288 289 288 288 287 286 285 285 286 286 287 288 290 291 290 289 287 286 285 284 284 284 284 284 285 283 282 281 282 281 281 282 282 283 285 286 288 289
286 286 285 285 285 285 287 287 286 284 284 283 282 282 284 285 287 288 289 290 291 288 285 285 285 284 284 284 285 284 282 281 280 281 280 279 281 279 279 281 286 288 288
285 284 284 284 284 285 286 286 285 283 282 282 282 282 281 282 282 283 285 285 285 287 287 285 284 283 282 283 283 283 282 281 280 279 281 278 278 277 279 281 286 287 289
283 283 283 284 284 285 286 285 285 282 282 282 282 281 281 282 282 281 281 281 281 282 281 280 279 279 280 281 282 282 281 278 277 277 278 274 275 275 277 280 288 288 289
282 282 283 283 283 284 286 286 284 282 281 281 281 281 281 281 285 283 280 278 278 279 284 285 284 284 284 284 283 280 275 274 271 274 274 273 272 272 273 277 282 287 287
283 283 283 283 283 283 286 286 284 282 281 281 281 282 283 282 284 283 279 278 277 277 278 278 278 279 279 279 280 277 277 272 271 270 273 272 271 272 269 272 278 280 282
Wind_Speed
11 10 10 10 11 11 11 11 10 10 11 9 7 12 10 7 6 3 4 12 13 13 15 14 12 12 12 12 12 13 14 13 17 16 18 18 17 15 16 16 16 16 15
10 11 11 11 11 11 12 11 11 11 9 9 8 7 8 6 5 4 4 6 11 12 14 15 14 14 14 15 13 13 14 14 15 19 19 19 18 18 18 17 18 17 18
9 12 10 11 12 12 14 11 12 10 9 8 9 6 6 7 6 6 4 4 5 11 12 15 15 15 15 14 15 14 13 15 15 15 20 20 20 20 20 20 20 20 19
6 5 6 7 10 12 12 12 11 10 9 9 7 6 5 5 6 6 5 4 5 5 9 13 14 15 16 17 16 15 14 12 12 15 16 20 21 22 22 22 22 22 22
5 5 5 10 9 10 13 12 12 11 9 8 8 5 5 5 6 6 6 6 6 6 5 11 15 14 14 17 18 18 16 15 12 8 10 11 18 22 24 24 25 25 25
6 4 5 5 10 5 6 10 12 10 10 9 9 7 6 6 5 5 6 6 6 6 6 6 7 9 16 17 19 19 18 17 14 12 11 10 4 13 24 26 27 28 28
5 4 4 5 5 5 13 10 10 15 10 10 8 3 3 5 6 6 5 5 7 7 7 8 4 5 7 19 20 22 21 19 18 14 13 13 13 10 6 3 8 25 30
5 5 6 8 8 8 7 9 7 8 7 11 9 7 3 1 3 6 5 7 8 7 9 9 9 8 7 6 10 21 23 22 20 18 15 15 13 12 12 12 11 11 9
6 5 9 7 11 10 11 12 14 14 8 8 11 5 4 5 4 4 10 9 11 8 8 10 10 9 7 7 7 11 18 17 18 17 16 14 13 14 11 11 10 10 10
6 5 7 8 11 9 10 8 10 11 9 10 7 3 2 1 4 3 3 10 8 9 9 5 7 8 7 5 8 10 13 14 15 16 16 14 13 13 12 11 10 11 12
3 5 4 6 5 6 10 12 13 17 10 11 9 6 3 2 1 1 3 3 3 5 5 6 5 5 6 7 7 8 13 14 15 14 13 13 13 12 13 12 12 13 14
3 5 5 5 8 5 7 9 11 17 13 12 9 8 8 5 4 2 1 2 4 4 5 5 6 4 4 5 6 11 12 13 12 10 10 10 9 10 13 13 13 13 13
3 5 3 4 6 9 7 8 12 11 12 11 12 11 11 11 7 8 6 6 5 3 2 2 3 4 3 4 4 7 1 7 10 11 11 10 10 10 11 11 13 12 7
2 3 2 3 3 9 12 10 9 9 10 9 13 9 6 7 8 5 7 6 3 6 3 4 3 4 3 4 4 5 1 2 5 7 8 9 9 9 9 11 13 13 16
0 3 3 4 4 5 7 13 9 10 11 10 9 9 8 8 7 6 4 6 8 5 7 1 2 4 4 4 5 2 2 3 4 5 7 9 10 12 15 17 17 19 20
2 3 3 4 5 2 7 13 11 10 10 9 9 11 9 6 7 6 6 6 7 7 3 2 3 2 5 4 6 8 9 13 18 18 19 19 19 18 17 16 17 18 19
4 1 2 3 5 4 4 4 7 5 6 5 4 5 6 4 3 4 2 2 4 6 6 2 2 2 4 4 5 7 7 9 9 18 17 17 18 16 16 15 15 14 14
3 1 5 3 3 3 5 6 10 11 10 8 8 7 7 6 5 5 3 4 3 4 2 5 2 3 6 5 5 9 7 7 7 14 17 17 17 15 15 15 14 14 12
3 3 6 5 5 6 9 7 12 12 12 11 9 6 7 8 7 5 4 4 3 4 3 4 4 2 3 3 6 6 7 7 8 14 16 16 15 13 12 12 12 12 11
4 6 9 8 8 9 10 4 14 15 15 11 11 10 9 10 10 7 6 6 5 7 7 8 7 5 3 3 3 4 5 4 4 5 10 9 9 10 10 10 9 8 8
4 10 8 10 9 9 6 8 11 17 14 13 13 13 12 16 19 11 5 5 6 7 7 8 6 4 3 3 4 2 3 2 3 2 4 3 3 3 4 7 5 6 7
8 12 10 11 9 9 16 17 13 16 12 14 13 12 11 13 17 20 22 23 11 7 8 6 5 7 4 3 3 3 4 1 3 1 3 2 3 3 2 2 3 6 8
10 14 10 12 13 11 18 21 20 14 16 13 12 10 10 7 9 10 18 21 21 23 14 6 8 4 4 2 5 4 3 2 2 1 3 2 2 2 2 3 4 7 10
13 11 11 12 13 10 20 23 24 16 17 15 14 10 10 9 11 10 12 14 15 14 11 8 9 6 6 4 4 2 3 6 4 2 2 3 0 1 2 3 8 10 14
13 10 11 13 12 9 21 24 18 13 16 16 12 11 11 11 15 15 11 13 12 11 16 22 20 20 18 15 8 3 3 3 2 2 4 3 1 2 3 3 3 4 12
12 10 12 11 12 12 22 22 18 10 13 10 11 12 20 13 18 16 9 9 10 7 6 6 7 12 13 13 17 8 3 3 3 3 3 2 1 3 2 2 2 3 3
Wind_Direction
216 207 200 190 194 182 182 179 177 182 182 182 182 183 184 203 218 195 161 176 174 190 211 223 223 218 211 215 214 216 220 211 211 203 205 203 210 212 213 209 212 214 213
234 219 204 201 191 192 189 184 183 178 184 181 189 175 177 186 198 211 160 179 182 191 206 218 226 230 228 229 222 228 230 229 220 219 213 209 213 208 213 214 215 220 221
248 271 209 199 194 190 190 191 186 177 180 182 188 175 172 177 194 210 202 170 189 198 204 216 220 229 238 238 222 220 231 241 228 218 219 220 216 217 215 216 220 213 221
213 253 247 230 210 192 191 189 187 181 182 183 183 174 171 174 188 201 208 196 173 194 210 215 221 227 234 238 239 234 238 242 248 232 222 222 226 225 223 220 221 222 214
219 237 220 223 221 224 187 192 188 180 180 179 179 166 171 182 190 199 198 203 204 187 187 212 217 221 230 234 237 239 240 245 242 236 230 226 233 234 233 229 224 223 222
230 208 225 195 211 196 221 187 195 183 184 176 179 182 185 183 176 197 201 207 204 203 200 196 205 221 220 228 234 236 238 242 244 239 219 222 254 250 238 234 232 227 224
245 201 199 187 182 204 222 205 208 183 181 171 168 169 185 178 187 192 191 200 206 209 200 213 197 205 214 222 228 234 236 240 243 245 243 234 239 237 259 288 290 255 231
221 242 208 196 180 199 191 184 214 202 182 176 176 156 152 290 253 211 195 207 211 205 214 210 211 203 202 196 218 227 232 236 239 241 242 242 237 234 251 270 286 290 286
208 241 246 203 190 184 203 215 210 194 172 194 168 149 148 197 183 195 215 210 216 213 216 213 213 210 202 204 199 217 222 227 233 237 240 242 243 242 245 260 277 290 294
212 231 281 235 196 186 188 183 201 190 175 172 164 181 35 133 182 157 206 219 209 209 215 214 209 210 205 201 202 201 203 214 220 227 232 232 233 229 238 253 267 276 282
225 268 282 260 202 170 176 176 194 195 170 180 176 178 141 287 66 28 165 203 214 212 194 201 204 201 201 202 208 210 211 212 219 221 227 228 226 231 240 251 263 272 276
220 252 283 291 218 185 170 162 188 184 167 174 178 186 175 180 208 169 191 206 200 216 198 191 206 199 205 205 200 203 207 210 208 204 215 224 223 226 239 248 254 264 274
237 229 251 325 277 193 190 183 165 172 181 179 184 194 198 190 193 184 182 216 208 212 187 132 64 58 57 44 45 20 210 188 193 194 201 210 218 223 232 244 253 254 198
247 292 271 269 292 311 186 183 189 182 176 189 201 208 193 190 194 185 182 190 216 215 194 142 50 28 25 31 9 358 87 180 204 203 197 201 213 220 206 179 127 119 128
6 345 341 296 276 298 235 180 181 184 191 181 204 204 201 198 195 200 196 192 211 221 203 88 122 31 35 21 338 19 67 188 180 194 154 129 114 121 111 108 115 107 107
354 353 2 313 288 10 322 187 187 184 192 199 208 209 202 203 188 195 206 205 209 218 187 50 52 73 45 51 13 70 81 80 82 85 85 86 86 88 96 108 110 109 104
335 71 62 322 306 26 22 43 92 97 156 94 35 165 87 58 69 82 50 85 195 199 209 87 89 67 57 80 59 64 58 79 78 84 89 88 88 87 91 94 97 101 105
347 10 71 3 29 69 69 76 78 82 80 84 73 75 110 98 78 75 75 84 62 16 99 131 107 74 61 10 38 81 66 53 75 84 88 89 88 86 86 85 82 80 83
25 47 78 41 45 60 55 70 100 94 90 87 67 70 72 94 83 66 59 85 94 82 77 127 117 98 99 63 70 42 54 56 45 62 79 82 84 86 90 91 89 85 88
55 64 53 55 47 64 70 77 96 95 84 83 72 65 61 70 74 72 81 74 86 89 91 101 100 104 93 88 95 106 77 58 78 55 63 76 81 90 96 95 89 86 95
68 75 64 59 51 63 71 92 94 86 90 85 80 70 64 64 67 62 83 83 90 99 103 105 105 111 115 132 137 114 97 104 50 67 90 64 72 61 66 81 97 115 116
71 80 67 68 62 66 88 98 104 92 95 77 79 68 60 63 70 69 67 64 68 100 102 108 123 125 97 105 110 116 131 150 116 283 104 66 99 83 51 49 100 122 128
70 75 69 74 71 72 92 91 89 92 81 71 68 65 66 53 55 67 66 62 56 60 65 89 106 87 111 146 120 132 160 108 98 112 117 97 23 69 4 350 155 145 124
59 61 64 68 73 73 76 77 76 77 79 72 69 66 73 69 66 73 75 68 64 58 54 64 71 72 73 47 95 149 118 104 80 45 36 128 1 85 342 332 146 162 135
59 56 51 56 64 63 70 72 79 79 78 72 70 62 61 61 68 76 77 86 76 67 68 75 79 73 66 63 59 71 23 87 46 38 14 88 322 77 20 14 13 132 137
65 62 59 56 60 63 69 70 65 66 72 69 63 60 67 73 69 66 72 81 80 65 70 67 61 56 54 49 51 53 9 109 121 57 335 89 110 123 42 328 12 33 90